Location: Eaton Estates
(41.3089°N, 82.0057°W)
Time: 11:51:24
(UTC+00:00)

Cosmos 841 Rocket - Pass Details

Date: 17 June 2021
Orbit: 747 x 772 km, 74.0° (Epoch: 27 July)

Event Time Altitude Azimuth Distance (km) Brightness Sun altitude
Exits shadow 07:19:59 44° 198° (SSW) 1,036 3.7 -20.4°
Maximum altitude 07:21:41 89° 108° (ESE) 755 3.4 -20.2°
Drops below altitude 10° 07:26:50 10° 20° (NNE) 2,273 7.1 -19.8°
Sets 07:29:12 0° 20° (NNE) 3,200 8.3 -19.6°
